Location: Croydon
(51.3762°N, 0.0982°W)
Time: 16:11:40
(UTC+01:00)

Envisat - Pass Details

Date: 20 February 2019
Orbit: 764 x 766 km, 98.1° (Epoch: 16 October)

Event Time Altitude Azimuth Distance (km) Brightness Sun altitude
Rises 18:52:27 0° 176° (S) 3,219 6.2 -14.4°
Reaches altitude 10° 18:54:47 10° 181° (S) 2,297 5.5 -14.8°
Maximum altitude 18:59:46 56° 259° (W) 906 3.7 -15.5°
Drops below altitude 10° 19:04:47 10° 339° (NNW) 2,314 5.8 -16.3°
Sets 19:07:09 0° 343° (NNW) 3,245 6.5 -16.7°
